User: anonymous   Login
Location: Franzen
(48.6167°N, 15.3833°E)
Time: 04:06:17
(UTC+00:00)
Language:

Vanguard 2 Rocket - Orbit

View from above orbital plane
View from above orbital plane
View from above satellite
View from above satellite

Ground track
Ground track

The orbit data is extracted from the following two-line orbital elements,

1 00012U 59001B   21212.53818063 -.00000081  00000-0 -40916-4 0  9995
2 00012  32.9016 359.5335 1665199  66.8341 309.8692 11.44384361326849
Epoch (UTC): 31 July 2021 12:54:58
Eccentricity: 0.1665199
inclination: 32.9016°
perigee height: 555 km
apogee height: 3325 km
right ascension of ascending node: 359.5335°
argument of perigee: 66.8341°
revolutions per day: 11.44384361
mean anomaly at epoch: 309.8692°
orbit number at epoch: 32684

The dashed part of the orbit path shows where the satellite is in the earth's shadow,  

DLR